Henderson, KY

12:28 AM CST on December 06, 2019 (GMT -0600)
Henderson City-County

Weather History for KEHR - October, 2019

Change the Weather History Date:

Monday, October 7, 2019

  Actual Average Record
Temperature  
Mean Temperature 58 °F -  
Max Temperature 72 °F 69 °F 92 °F (1939)
Min Temperature 45 °F 47 °F 28 °F (1952)
Degree Days  
Heating Degree Days 6    
Growing Degree Days 8 (Base 50)    
Moisture  
Dew Point 49 °F    
Average Humidity 72    
Maximum Humidity 93    
Minimum Humidity 34    
Precipitation  
Precipitation 0.00 in - - ()
Sea Level Pressure  
Sea Level Pressure 30.19 in    
Wind  
Wind Speed 4 mph (NNE)    
Max Wind Speed 10 mph    
Max Gust Speed -    
Visibility 10 miles    
Events Rain    
Averages and records for this station are not official NWS values.
T = Trace of Precipitation, MM = Missing Value Source: NWS Daily Summary

Daily Weather History Graph

Daily Weather History Graph

Search for Another Location

Airport or City:

Astronomy

Oct. 07, 2019 Rise Set
Actual Time 6:51 AM CDT 6:25 PM CDT
Civil Twilight 6:25 AM CDT 6:51 PM CDT
Nautical Twilight 5:54 AM CDT 7:21 PM CDT
Astronomical Twilight 5:24 AM CDT 7:52 PM CDT
Moon 3:39 PM CDT (10/7) 12:51 AM CDT (10/7)
Length of Visible Light 12h 26m
Length of Day
11h 33m
Waxing Gibbous, 69% of the Moon is Illuminated
Oct 7
Waxing Gibbous
Oct 13
Full
Oct 21
Last Quarter
Oct 27
New
Nov 4
First Quarter

Hourly Weather History & Observations

Time (CDT) Temp. Dew Point Humidity Pressure Visibility Wind Dir Wind Speed Gust Speed Precip Events Conditions
12:56 AM 59.0 °F 55.0 °F 87% 30.16 in 10.0 mi North 4.6 mph - N/A Rain Light Rain
1:56 AM 57.9 °F 55.9 °F 93% 30.18 in 10.0 mi Calm Calm - N/A   Overcast
2:56 AM 57.9 °F 55.9 °F 93% 30.15 in 10.0 mi NE 5.8 mph - N/A   Overcast
3:56 AM 57.9 °F 55.9 °F 93% 30.17 in 10.0 mi NNE 6.9 mph - N/A Rain Light Rain
4:56 AM 57.9 °F 55.9 °F 93% 30.17 in 10.0 mi North 4.6 mph - N/A Rain Light Rain
5:56 AM 57.9 °F 54.0 °F 87% 30.18 in 10.0 mi Calm Calm - N/A   Clear
6:56 AM 57.9 °F 54.0 °F 87% 30.19 in 10.0 mi NE 5.8 mph - N/A Rain Light Rain
7:56 AM 57.9 °F 54.0 °F 87% 30.20 in 10.0 mi NE 5.8 mph - N/A   Clear
8:56 AM 60.1 °F 54.0 °F 80% 30.22 in 10.0 mi NNE 6.9 mph - N/A   Clear
9:56 AM 61.0 °F 52.0 °F 72% 30.22 in 10.0 mi NE 10.4 mph - N/A   Clear
10:56 AM 66.0 °F 52.0 °F 60% 30.23 in 10.0 mi NNE 6.9 mph - N/A   Clear
12:56 PM 66.9 °F 48.9 °F 52% 30.22 in 10.0 mi NNW 8.1 mph - N/A   Clear
1:56 PM 70.0 °F 46.0 °F 42% 30.20 in 10.0 mi Variable 5.8 mph - N/A   Clear
2:56 PM 71.1 °F 44.1 °F 38% 30.19 in 10.0 mi North 5.8 mph - N/A   Clear
3:56 PM 72.0 °F 43.0 °F 35% 30.18 in 10.0 mi Variable 5.8 mph - N/A   Clear
4:56 PM 71.1 °F 41.0 °F 34% 30.17 in 10.0 mi North 9.2 mph - N/A   Clear
5:56 PM 68.0 °F 43.0 °F 40% 30.17 in 10.0 mi ENE 5.8 mph - N/A   Clear
6:56 PM 57.0 °F 44.1 °F 62% 30.18 in 10.0 mi Calm Calm - N/A   Clear
7:56 PM 53.1 °F 45.0 °F 74% 30.19 in 10.0 mi Calm Calm - N/A   Clear
8:56 PM 48.9 °F 44.1 °F 83% 30.20 in 10.0 mi Calm Calm - N/A   Clear
9:56 PM 46.9 °F 43.0 °F 86% 30.22 in 10.0 mi Calm Calm - N/A   Clear
10:56 PM 45.0 °F 43.0 °F 93% 30.22 in 10.0 mi Calm Calm - N/A   Clear
11:56 PM 46.9 °F 45.0 °F 93% 30.21 in 10.0 mi Calm Calm - N/A   Clear